Voltar ao catálogo

SL-16 DEB

AtivoLEO
NORAD 22338·DEBRIS·🇷🇺 Russia

Lançado Dec 25, 1992 de Baikonur Cosmodrome

Loading…

Próximas Passagens (próximas 24 horas)

TLE

AtualizadoSource: Space-Track

Época: Sep 13, 2026, 22:46 UTC

1 22338U 92093AB  26256.94911730  .00002243  00000-0  31449-3 0  9991
2 22338  70.6129 223.2450 0068207 274.9336 147.1981 14.77219230768626

Acompanhe SL-16 DEB em tempo real com AllMySat

Download on the App Store